Regional Weather Roundup
Issued by NWS

Home | Current Version | Previous Version | Text Only | Print | Product List | Glossary Off
Versions: 1 2 3 4 5 6 7 8 9 10 11 12 13 14 15 16 17 18 19 20 21 22 23 24 25 26 27 28 29 30 31 32 33 34 35 36 37 38 39 40 41 42 43 44 45 46 47 48 49 50

000
ASUS45 KABQ 302101
RWRNM
WEATHER ROUNDUP FOR NEW MEXICO
NATIONAL WEATHER SERVICE ALBUQUERQUE NM
200 PM MST FRI JAN 30 2015

NOTE: "FAIR" MEANS FEW OR NO CLOUDS BELOW 12,000 FEET AGL WITH NO
       SIGNIFICANT WEATHER OR OBSTRUCTIONS TO VISION.

      THIS PRODUCT IS RELEASED AS TWO VERSIONS.  ONE VERSION NEAR
      THE TOP OF THE HOUR CONTAINING PRELIMINARY DATA FROM ALBUQUERQUE
      AND OTHER STATIONS.  A FINAL VERSION WITH ADDITIONAL DATA IS
      ISSUED ABOUT 10 MINUTES AFTER THE HOUR.

NMZ501-503-504-510>518-302200-
NORTHWEST PLATEAU/NORTHCENTRAL MOUNTAINS

CITY           SKY/WX    TMP DP  RH WIND       PRES   REMARKS
FARMINGTON     SNOW      32  31  96 E7        30.08F VSB 1/2 WCI  26
SANTA FE       CLOUDY    32  26  78 S8        30.16F WCI  25
TAOS           CLOUDY    28  25  86 CALM      30.18F

$$
NMZ402-403-502-505>509-302200-
WESTCENTRAL MOUNTAINS/SOUTHWEST MOUNTAINS

CITY           SKY/WX    TMP DP  RH WIND       PRES   REMARKS
GALLUP         LGT SNOW  35  32  88 NE6       30.02F FOG     WCI  30
SILVER CITY    LGT RAIN  39  39 100 SE8       30.10F WCI  34

$$
NMZ407-409-411-412-302200-
SOUTHERN DESERTS

CITY           SKY/WX    TMP DP  RH WIND       PRES   REMARKS
DEMING         CLOUDY    44  40  85 E12       30.08F
HOLLOMAN AFB   DRIZZLE   45  42  89 VRB6      30.12F
ALAMOGORDO     LGT RAIN  45  43  93 N8        30.13F
T OR C         CLOUDY    39  38  96 N7        30.10F WCI  34

$$
NMZ519>523-302200-
CENTRAL VALLEYS/CENTRAL HIGHLANDS

CITY           SKY/WX    TMP DP  RH WIND       PRES   REMARKS
ALBUQUERQUE    CLOUDY    34  33  96 N7        30.15F VSB 1/2 WCI  28
DOUBLE EAGLE   CLOUDY    30  30 100 N8        30.15F FOG     WCI  23
MORIARTY ARPT  CLOUDY    31  28  88 SE8       30.19F WCI  24
CLINES CORNERS FOG       28  26  92 SE13      30.13F VSB 1/4 WCI  17
BELEN          CLOUDY    34  34 100 NW5       30.15F WCI  30
SOCORRO        NOT AVBL

$$
NMZ524>526-539-540-302200-
SOUTHCENTRAL MOUNTAINS

CITY           SKY/WX    TMP DP  RH WIND       PRES   REMARKS
RUIDOSO        NOT AVBL

$$
NMZ527>531-302200-
NORTHEAST HIGHLANDS/NORTHEAST PLAINS

CITY           SKY/WX    TMP DP  RH WIND       PRES   REMARKS
LAS VEGAS      CLOUDY    28  26  92 S8        30.18F WCI  20
RATON          HVY SNOW  29  28  96 SW12      30.17F VSB 1/4 WCI  19
CLAYTON        LGT SNOW  35  32  88 S16       30.21F FOG     WCI  25

$$
NMZ532>537-302200-
EASTCENTRAL PLAINS

CITY           SKY/WX    TMP DP  RH WIND       PRES   REMARKS
TUCUMCARI      LGT RAIN  36  34  92 CALM      30.25F
CANNON AFB     NOT AVBL
CLOVIS AIRPORT CLOUDY    36  28  75 S9        30.27F WCI  29

$$
NMZ028-029-538-302200-
SOUTHEAST PLAINS

CITY           SKY/WX    TMP DP  RH WIND       PRES   REMARKS
ROSWELL        CLOUDY    41  31  67 SE8       30.24F
ARTESIA        CLOUDY    41  32  70 SE7       30.25F
CARLSBAD       CLOUDY    43  33  68 E6        30.24F
HOBBS          CLOUDY    41  32  70 SE8       30.27F


$$



USA.gov is the U.S. government's official web portal to all federal, state and local government web resources and services.